Tracking 19224 objects as of 23-Jul-2018
HD Live streaming from Space Station
objects crossing your sky now

COSMOS 1348

Track COSMOS 1348 now!
COSMOS 1348 is classified as:


NORAD ID: 13124
Int'l Code: 1982-029A
Perigee: 8,452.7 km
Apogee: 31,978.0 km
Inclination: 71.9 °
Period: 719.0 minutes
Semi major axis: 26586 km
RCS: 16.1516 m2 (large)
Launch date: April 7, 1982
Source: Commonwealth of Independent States (former USSR) (CIS)
Launch site: PLESETSK MISSILE AND SPACE COMPLEX (PKMTR)
aabbcc
Your satellite tracking list
Your tracking list is empty




NASA's NSSDC Master Catalog

Two Line Element Set (TLE):
1 13124U 82029A   18202.62028660 +.00000092 +00000-0 +00000-0 0  9996
2 13124 071.9012 250.7706 4424315 058.4227 015.3988 02.00269517265549
Source of the keplerian elements: AFSPC